Weather History for Alice Springs, NT

Change the Weather History Date:

Wednesday, October 24, 2012

  Actual Average Record
Temperature  
Mean Temperature 88 °F -  
Max Temperature 105 °F 92 °F 105 °F (2012)
Min Temperature 72 °F 63 °F 48 °F (2002)
Cooling Degree Days 24    
Growing Degree Days 38 (Base 50)    
Moisture  
Dew Point 29 °F    
Average Humidity 11    
Maximum Humidity 37    
Minimum Humidity 4    
Precipitation  
Precipitation 0.00 in 0.03 in - ()
Sea Level Pressure  
Sea Level Pressure 29.84 in    
Wind  
Wind Speed 8 mph ()    
Max Wind Speed 25 mph    
Max Gust Speed 44 mph    
Visibility 8.3 miles    
Events      
Averages and records for this station are not official NWS values.
T = Trace of Precipitation, MM = Missing Value Source: Averaged Metar Reports

Daily Weather History Graph

Daily Weather History Graph

Search for Another Location

Airport:

Trip Planner

Search our weather history database for the weather conditions in past years. The results will help you decide how hot, cold, wet, or windy it might be!

Date:

Astronomy

Oct. 24, 2012 Rise Set
Actual Time 5:53 AM CST 6:43 PM CST
Civil Twilight 5:30 AM CST 7:07 PM CST
Nautical Twilight 5:03 AM CST 7:34 PM CST
Astronomical Twilight 4:35 AM CST 8:02 PM CST
Moon 1:57 PM CST (10/24) 2:04 AM CST (10/24)
Length of Visible Light 13h 36m
Length of Day
12h 49m
Waxing Gibbous, 70% of the Moon is Illuminated
Oct 24
Waxing Gibbous
Oct 30
Full
Nov 7
Last Quarter
Nov 14
New
Nov 21
First Quarter

Hourly Weather History & Observations

Time (CST) Temp. Dew Point Humidity Pressure Visibility Wind Dir Wind Speed Gust Speed Precip Events Conditions
12:00 AM 76 °F 28 °F 8% 29.82 in - East 5.8 mph - -  
12:00 AM 75.2 °F 26.6 °F 17% 29.89 in 6.2 mi East 5.8 mph - N/A   Unknown
12:30 AM 76 °F 31 °F 11% 29.82 in - Calm Calm - -  
12:30 AM 75.2 °F 32.0 °F 21% 29.89 in 6.2 mi Calm Calm - N/A   Unknown
1:00 AM 77.0 °F 28.4 °F 17% 29.89 in 6.2 mi East 5.8 mph - N/A   Unknown
1:30 AM 73.4 °F 26.6 °F 18% 29.86 in 6.2 mi East 1.2 mph - N/A   Unknown
2:07 AM 86.0 °F 21.2 °F 9% 29.86 in 6.2 mi NNE 1.2 mph - N/A   Unknown
2:30 AM 87.8 °F 26.6 °F 11% 29.86 in 6.2 mi East 5.8 mph - N/A   Unknown
3:00 AM 87 °F 27 °F 5% 29.80 in - NE 8.1 mph - -  
3:00 AM 87.8 °F 26.6 °F 11% 29.86 in 6.2 mi NE 8.1 mph - N/A   Unknown
3:30 AM 84 °F 31 °F 8% 29.81 in - ENE 4.6 mph - -  
3:30 AM 84.2 °F 32.0 °F 15% 29.86 in 6.2 mi ENE 4.6 mph - N/A   Unknown
3:52 AM 75.2 °F 30.2 °F 19% 29.86 in 6.2 mi East 5.8 mph - N/A   Unknown
4:00 AM 75.2 °F 28.4 °F 18% 29.89 in 6.2 mi ESE 5.8 mph - N/A   Unknown
4:30 AM 75.2 °F 32.0 °F 21% 29.89 in 6.2 mi ENE 8.1 mph - N/A   Unknown
5:00 AM 75.2 °F 33.8 °F 22% 29.89 in 6.2 mi ENE 6.9 mph - N/A   Unknown
5:30 AM 75.2 °F 33.8 °F 22% 29.89 in 6.2 mi ENE 8.1 mph - N/A   Unknown
6:00 AM 75 °F 33 °F 12% 29.83 in 19 mi ENE 8.1 mph - -   Partly Cloudy
6:00 AM 75.2 °F 33.8 °F 22% 29.92 in - ENE 8.1 mph - N/A   Clear
6:30 AM 78 °F 31 °F 9% 29.85 in - NE 4.6 mph - -  
6:30 AM 78.8 °F 30.2 °F 17% 29.92 in - NE 4.6 mph - N/A   Clear
7:00 AM 82.4 °F 30.2 °F 15% 29.92 in - NE 9.2 mph - N/A   Clear
7:30 AM 87.8 °F 28.4 °F 12% 29.92 in - NE 10.4 mph - N/A   Clear
8:00 AM 91.4 °F 30.2 °F 11% 29.92 in - NE 9.2 mph - N/A   Clear
8:30 AM 93.2 °F 30.2 °F 11% 29.92 in - NE 11.5 mph - N/A   Clear
9:00 AM 96 °F 26 °F 4% 29.85 in 19 mi NNE 13.8 mph - -   Partly Cloudy
9:00 AM 96.8 °F 26.6 °F 8% 29.92 in - NNE 13.8 mph - N/A   Clear
9:30 AM 97 °F 24 °F 4% 29.85 in - North 18.4 mph - -  
9:30 AM 96.8 °F 24.8 °F 8% 29.92 in - North 18.4 mph - N/A   Clear
10:00 AM 96.8 °F 23.0 °F 7% 29.92 in - North 21.9 mph - N/A   Clear
10:30 AM 100.4 °F 21.2 °F 6% 29.89 in - North 18.4 mph - N/A   Clear
10:37 AM 100.4 °F 23.0 °F 6% 29.89 in - North 18.4 mph 29.9 mph N/A   Clear
11:00 AM 100.4 °F 21.2 °F 6% 29.89 in - North 18.4 mph - N/A   Clear
11:30 AM 100.4 °F 19.4 °F 5% 29.86 in - North 17.3 mph - N/A   Clear
12:00 PM 102 °F 25 °F 4% 29.78 in 19 mi NNW 12.7 mph - -   Partly Cloudy
12:00 PM 102.2 °F 24.8 °F 6% 29.86 in - NNW 12.7 mph - N/A   Clear
12:30 PM 103 °F 19 °F 4% 29.77 in - NNW 6.9 mph - -  
12:30 PM 104.0 °F 19.4 °F 5% 29.83 in - NNW 6.9 mph 18.4 mph N/A   Clear
1:00 PM 102.2 °F 23.0 °F 6% 29.83 in - WNW 11.5 mph - N/A   Clear
1:30 PM 104.0 °F 23.0 °F 6% 29.80 in 6.2 mi North 13.8 mph - N/A   Unknown
2:00 PM 105.8 °F 15.8 °F 4% 29.80 in 6.2 mi NNE 8.1 mph - N/A   Unknown
2:30 PM 105.8 °F 14.0 °F 4% 29.80 in 6.2 mi North 12.7 mph - N/A   Dust Whirls
3:00 PM 102 °F 22 °F 4% 29.70 in 16 mi WNW 11.5 mph - -   Mostly Cloudy
3:00 PM 102.2 °F 21.2 °F 6% 29.77 in - WNW 11.5 mph - N/A   Clear
3:30 PM 101 °F 24 °F 4% 29.70 in - NNW 11.5 mph - -  
3:30 PM 100.4 °F 23.0 °F 6% 29.77 in - NNW 11.5 mph - N/A   Clear
4:00 PM 104.0 °F 21.2 °F 5% 29.77 in 6.2 mi West 6.9 mph - N/A   Scattered Clouds
4:29 PM 100.4 °F 23.0 °F 6% 29.77 in 6.2 mi North 17.3 mph 28.8 mph N/A   Unknown
4:30 PM 100.4 °F 23.0 °F 6% 29.77 in 6.2 mi North 18.4 mph 31.1 mph N/A   Widespread Dust
4:31 PM 100.4 °F 21.2 °F 6% 29.77 in 6.2 mi North 19.6 mph 43.7 mph N/A   Scattered Clouds
5:00 PM 100.4 °F 28.4 °F 8% 29.77 in 6.2 mi North 13.8 mph 28.8 mph N/A   Scattered Clouds
5:30 PM 100.4 °F 21.2 °F 6% 29.77 in 6.2 mi NW 11.5 mph - N/A   Partly Cloudy
6:00 PM 99 °F 21 °F 4% 29.70 in 19 mi NNE 13.8 mph - -   Partly Cloudy
6:00 PM 98.6 °F 21.2 °F 6% 29.77 in 6.2 mi NNE 13.8 mph - N/A   Partly Cloudy
6:12 PM 98.6 °F 21.2 °F 6% 29.77 in 6.2 mi NNE 17.3 mph 36.8 mph N/A   Partly Cloudy
6:30 PM 99 °F 26 °F 4% 29.71 in - North 10.4 mph - -  
6:30 PM 98.6 °F 26.6 °F 8% 29.77 in - North 10.4 mph - N/A   Clear
7:00 PM 96.8 °F 30.2 °F 10% 29.80 in - South 10.4 mph - N/A   Clear
7:30 PM 93.2 °F 37.4 °F 14% 29.83 in - NE 16.1 mph - N/A   Clear
8:00 PM 91.4 °F 39.2 °F 16% 29.83 in 6.2 mi NE 9.2 mph - N/A   Mostly Cloudy
8:30 PM 89.6 °F 35.6 °F 15% 29.86 in - South 4.6 mph - N/A   Clear
9:00 PM 90 °F 35 °F 7% 29.79 in 19 mi West 8.1 mph - -   Partly Cloudy
9:00 PM 89.6 °F 35.6 °F 15% 29.86 in - WSW 8.1 mph - N/A   Clear
9:30 PM 89 °F 41 °F 10% 29.79 in - SW 5.8 mph - -  
9:30 PM 89.6 °F 41.0 °F 18% 29.86 in - SW 5.8 mph - N/A   Clear
10:00 PM 89.6 °F 37.4 °F 16% 29.89 in - NW 3.5 mph - N/A   Clear
10:25 PM 86.0 °F 44.6 °F 23% 29.89 in 6.2 mi SSW 18.4 mph 38.0 mph N/A   Unknown
10:26 PM 86.0 °F 44.6 °F 23% 29.89 in 6.2 mi SSE 24.2 mph 38.0 mph N/A   Unknown
10:30 PM 86.0 °F 46.4 °F 25% 29.92 in 6.2 mi SSE 19.6 mph 38.0 mph N/A   Unknown
11:00 PM 82.4 °F 50.0 °F 32% 29.95 in 6.2 mi South 18.4 mph - N/A   Scattered Clouds
11:30 PM 80.6 °F 51.8 °F 37% 29.92 in 6.2 mi South 25.3 mph - N/A   Unknown